Tracking 20241 objects as of 27-Jan-2020
HD Live streaming from Space Station
objects crossing your sky now

UNHA 3 R/B

Track UNHA 3 R/B now!
10-day predictions


NORAD ID: 41333
Int'l Code: 2016-009B
Perigee: 429.7 km
Apogee: 485.2 km
Inclination: 97.4 °
Period: 93.6 minutes
Semi major axis: 6828 km
RCS: Unknown
Launch date: February 7, 2016
Source: North Korea (NKOR)
Launch site: Yunsong, DPRK (YUN)

Note: This is a ROCKET BODY
aabbcc
Your satellite tracking list
Your tracking list is empty




NASA's NSSDC Master Catalog

Two Line Element Set (TLE):
1 41333U 16009B   20027.13943816  .00001395  00000-0  37886-4 0  9990
2 41333  97.3688 112.6591 0040655 177.1764 182.9719 15.38579944222610
Source of the keplerian elements: AFSPC